CZ-6A DEB, 61358

Orbit data source: Space-Track

CZ-6A DEB, 61358 is space debris in LEO originally from a launch on Tue, 06 Aug 2024 UTC launched from the Taiyaun Space Center, China (TSC). Debris objects in space refer to the collection of defunct objects orbiting the Earth. Examples of debris include non-operational satellites, rocket bodies, and fragments generated from explosions, collisions, or faulty payload assembly.

Loading next visibility...
Identifier
61358, 2024-140VX
Orbit
LEO
Country
Flag of CNCN / PRC
Related business
Manufacturer
SAST
Mission
Spacecraft
Bus & Motor
Unknown
Mass
Unknown
Launch date (UTC)
2024-08-06 (2 years ago)
Launch vehicle
Unknown
Launch site
Taiyaun Space Center, China (TSC)
Object type
Payload
Rocket body
Debris
Shape & HBR
Unknown shape, 0.1 m
Radar Cross Section
Medium (>0.1 m² and <1 m²)

Expand to show TLE details & history
Last TLE update: 17 hours ago

TLE from 17 hours ago
0 CZ-6A DEB
1 61358U 24140VX  26171.24791438  .00000429  00000-0  10356-3 0  9992
2 61358  88.9281 264.4107 0083957 261.5235  97.6449 14.49254950 94770
Epoch: 2026-06-20T05:56Z
TLE epoch observation values (Epoch: 2026-06-20T05:56:59.802Z)
Latitude
-0.00004°
Longitude
-93.30374°
Altitude
739.608 km
Speed
7.481 km/s
True Right ascension
17h 37m 38s
True Declination
0° 00' 00"
Sunlit
Object was in full shadow at epoch
Visualization orbit readout
Latitude
Unknown
Longitude
Unknown
Altitude
Unknown
Speed
Unknown
Apparent Right ascension
Unknown
Apparent Declination
Unknown
Sunlit
N/A
Visualization observer readout
Local Sidereal Time
10:18:08
Azimuth
Unknown
Elevation
Unknown
Doppler factor
Unknown
Orbital elements
Apogee altitude
784.628 km
Perigee altitude
665.357 km
Semi-major axis
7,103.129 km
Eccentricity
0.0084
Inclination
88.9281°
RAAN
264.4107°
Arg. of periapsis
261.5235°
True anomaly
98.59705°
Mean anomaly
97.6449°
Eccentric anomaly
98.12111°
Mean motion
3.62551 °/min
Orbital period
99.3 mins
BSTAR
0.00010356
Loading maneuver chart data...
Computing Atmospheric mass density...
Loading historical data...
Loading historical data...
Loading historical data...
Loading historical data...
Loading historical data...
Loading historical data...
Loading historical data...

Documentation

Showing up to 5 results
|